Location: Brotuna
(46.2000°N, 22.6000°E)
Time: 14:04:04
(UTC+00:00)

Cosmos 1606 Rocket - Pass Details

Date: 09 April 2020
Orbit: 602 x 633 km, 82.5° (Epoch: 02 June)

Event Time Altitude Azimuth Distance (km) Brightness Sun altitude
Rises 17:48:23 0° 182° (S) 2,893 6.8 -7.3°
Reaches altitude 10° 17:50:36 10° 181° (S) 1,996 6.0 -7.7°
Maximum altitude 17:55:01 74° 97° (E) 660 3.5 -8.4°
Drops below altitude 10° 17:59:30 10° 12° (NNE) 2,025 6.3 -9.1°
Sets 18:01:45 0° 11° (N) 2,940 7.2 -9.5°
